Tracking 29892 objects as of 21-Nov-2024
HD Live streaming from Space Station
objects crossing your sky now

STARLINK-31285

Track STARLINK-31285 now!
10-day predictions
STARLINK-31285 is classified as:


NORAD ID: 59244
Int'l Code: 2024-049P
Perigee: 450.4 km
Apogee: 452.1 km
Inclination: 43.0 °
Period: 93.5 minutes
Semi major axis: 6822 km
RCS: Unknown
Launch date: March 16, 2024
Source: United States (US)
Launch site: AIR FORCE EASTERN TEST RANGE (AFETR)
Your satellite tracking list
Your tracking list is empty




NASA's NSSDC Master Catalog

Two Line Element Set (TLE):
1 59244U 24049P   24325.95133735  .00000494  00000-0  19092-4 0  9997
2 59244  43.0014 310.2435 0001219 257.5421 102.5299 15.40686757 39802
Source of the keplerian elements: AFSPC